Content
SEND FEEDBACK

Daily
Averages
Monthly
Summary
United States of America

CEDAR BLUFFS, NEBRASKA


Home > North America > United States > Nebraska
Elevation: 1187 feet     Latitude: 41 26N     Longitude: 096 29W

WEATHER
 
SELECT A DAY
Number of Records: 438,073;   Date Range: 11/7/95 - 9/28/14
 
SHARE

PRINT THIS DATA

[ ← Previous Day ]
WEATHER ALMANAC - JANUARY 19, 2013
[ Next Day → ]
[ °C ]   °F
Weather ElementAverageHighLow
Temperature37.8 °F53.6 °F (2:15 pm)21 °F (11:55 pm)
Dewpoint28 °F34 °F (11:15 am)13.1 °F (11:35 pm)
Humidity70.6 %99 % (3:35 am)43 % (2:35 pm)
Barometer30.05 in30.36 in (11:55 pm)29.85 in (3:55 am)
Wind Speed10.5 mph23 mph (11:55 am)
Wind Gust29.9 mph (8:15 pm)
Weather ElementAverage
Visibility10 mi
Wind DirectionWSW (238.8 °)

Weather ElementTotal
Precipitation---
Heating Degree Days27.7 (Base 65)
Averaged from 60 records on January 19, 2013
WEATHER CONDITIONS BREAKOUT
WIND DIRECTION BREAKOUT
WEATHER BY HOUR - JANUARY 19, 2013
[ °C ]   °F
Local TimeTemperatureDewpointHumidityBarometerVisibilityWind DirectionWind SpeedGust SpeedPrecipitationEventsConditions
12:35 AM32.2 °F29.8 °F91 %29.87 in10.0 miCalmClear
12:55 AM29.7 °F29.1 °F98 %29.86 in10.0 miCalmClear
1:15 AM30.7 °F30.0 °F97 %29.86 in10.0 miCalmClear
1:35 AM32.0 °F30.6 °F94 %29.87 in10.0 miCalmClear
1:55 AM31.5 °F30.7 °F97 %29.86 in10.0 miCalmClear
2:15 AM32.0 °F30.4 °F94 %29.86 in10.0 miCalmClear
2:35 AM30.9 °F29.8 °F96 %29.86 in10.0 miCalmClear
2:55 AM29.5 °F27.5 °F92 %29.86 in10.0 miCalmClear
3:15 AM29.1 °F28.6 °F98 %29.86 in10.0 miCalmClear
3:35 AM27.0 °F26.6 °F99 %29.86 in10.0 miCalmClear
3:55 AM27.7 °F27.5 °F99 %29.85 in10.0 miCalmClear
4:15 AM28.0 °F27.3 °F97 %29.86 in10.0 miCalmClear
4:35 AM28.9 °F28.2 °F97 %29.85 in10.0 miCalmClear
4:55 AM29.3 °F28.4 °F96 %29.85 in10.0 miCalmClear
5:15 AM28.9 °F28.2 °F97 %29.86 in10.0 miCalmClear
5:35 AM29.3 °F28.4 °F96 %29.86 in10.0 miNorth (350°)3.5 mphClear
7:15 AM33.1 °F30.2 °F89 %29.90 in10.0 miNW (320°)11.5 mphClear
7:55 AM34.2 °F30.6 °F87 %29.92 in10.0 miWest (270°)9.2 mphClear
8:15 AM34.9 °F29.8 °F82 %29.92 in10.0 miWest (270°)12.7 mphClear
9:55 AM43.0 °F30.0 °F60 %29.98 in10.0 miWest (270°)13.8 mphClear
10:15 AM44.6 °F30.4 °F57 %29.98 in10.0 miWest (270°)16.1 mphClear
10:35 AM45.1 °F31.5 °F59 %29.99 in10.0 miWest (280°)15.0 mphClear
11:15 AM47.3 °F34.0 °F60 %29.99 in10.0 miWest (280°)12.7 mphClear
11:35 AM50.2 °F33.3 °F52 %29.99 in10.0 miWNW (290°)17.3 mphClear
11:55 AM50.9 °F30.7 °F46 %30.00 in10.0 miWNW (300°)23.0 mph26.5 mphClear
12:15 PM51.1 °F30.6 °F45 %30.00 in10.0 miWNW (290°)23.0 mph26.5 mphClear
12:35 PM51.8 °F30.9 °F45 %30.01 in10.0 miWNW (300°)21.9 mph26.5 mphClear
12:55 PM51.8 °F31.1 °F45 %30.01 in10.0 miNW (310°)21.9 mph26.5 mphClear
1:15 PM51.6 °F31.8 °F47 %30.00 in10.0 miNW (310°)17.3 mph25.3 mphClear
1:55 PM53.1 °F31.8 °F44 %30.01 in10.0 miNW (310°)20.7 mph24.2 mphClear
2:15 PM53.6 °F32.2 °F44 %30.01 in10.0 miNW (310°)12.7 mphClear
2:35 PM53.6 °F31.5 °F43 %30.02 in10.0 miWNW (300°)16.1 mph19.6 mphClear
2:55 PM53.2 °F32.2 °F45 %30.03 in10.0 miNW (310°)15.0 mph26.5 mphClear
3:15 PM52.7 °F32.0 °F45 %30.05 in10.0 miNW (320°)15.0 mph27.6 mphClear
3:35 PM52.2 °F32.2 °F47 %30.06 in10.0 miNNW (330°)17.3 mph25.3 mphClear
3:55 PM51.1 °F32.7 °F50 %30.08 in10.0 miNW (320°)18.4 mph21.9 mphClear
4:15 PM50.0 °F32.4 °F51 %30.09 in10.0 miNNW (330°)9.2 mph18.4 mphClear
4:35 PM48.4 °F32.9 °F55 %30.10 in10.0 miNNW (330°)10.4 mphClear
4:55 PM47.3 °F32.9 °F57 %30.11 in10.0 miNNW (330°)10.4 mphClear
5:15 PM45.1 °F32.9 °F62 %30.12 in10.0 miNNW (330°)6.9 mphClear
5:35 PM43.2 °F32.2 °F65 %30.13 in10.0 miNNW (340°)8.1 mphClear
5:55 PM43.3 °F30.7 °F61 %30.15 in10.0 miNNW (330°)15.0 mph20.7 mphClear
6:15 PM41.2 °F29.8 °F64 %30.16 in10.0 miNNW (330°)11.5 mphClear
6:35 PM40.5 °F30.2 °F67 %30.16 in10.0 miNNW (330°)10.4 mphClear
6:55 PM39.0 °F30.0 °F70 %30.17 in10.0 miNNW (340°)9.2 mphClear
7:15 PM39.6 °F30.9 °F71 %30.19 in10.0 miNNW (330°)17.3 mph23.0 mphClear
7:35 PM37.0 °F31.8 °F81 %30.21 in10.0 miNorth (350°)13.8 mph24.2 mphClear
7:55 PM34.7 °F30.0 °F83 %30.24 in10.0 miNNW (340°)13.8 mph20.7 mphClear
8:15 PM33.6 °F24.6 °F70 %30.25 in10.0 miNNW (340°)17.3 mph29.9 mphClear
8:35 PM32.4 °F22.5 °F67 %30.26 in10.0 miNNW (330°)18.4 mph26.5 mphClear
8:55 PM32.0 °F20.8 °F63 %30.27 in10.0 miNNW (330°)20.7 mph28.8 mphClear
9:15 PM30.7 °F18.0 °F59 %30.27 in10.0 miNW (320°)18.4 mph26.5 mphClear
9:35 PM28.4 °F17.2 °F63 %30.28 in10.0 miNNW (330°)12.7 mphClear
9:55 PM27.7 °F19.4 °F71 %30.29 in10.0 miNorth (350°)15.0 mph20.7 mphClear
10:15 PM25.7 °F18.1 °F73 %30.31 in10.0 miNNW (340°)12.7 mph24.2 mphClear
10:35 PM24.6 °F16.5 °F71 %30.32 in10.0 miNNW (340°)10.4 mph19.6 mphClear
10:55 PM23.4 °F13.8 °F67 %30.33 in10.0 miNNW (330°)13.8 mph19.6 mphClear
11:15 PM22.8 °F15.6 °F74 %30.34 in10.0 miNNW (340°)5.8 mphClear
11:35 PM21.9 °F13.1 °F69 %30.35 in10.0 miNNW (340°)8.1 mphClear
11:55 PM21.0 °F13.3 °F72 %30.36 in10.0 miNW (320°)8.1 mphClear
Hourly data recorded from KFET, located miles away from Cedar Bluffs, Nebraska







STORIES FROM OUR PARTNERS